Погода в Бяла-Подляске

Польша     52°02′01″N   23°07′09″E
темп.,
°C
ветер,
м/с
пор.,
м/с
влажн.,
%
обл.,
%
осадки,
мм/ч
давл.,
гПа
погр.,
м
24 июля, сб
сб2423:00+16зсз228427 0.0 101623
02:00+16зсз228567 0.0 101720
05:00+16з228278 0.0 101633
08:00+19зсз1270100 0.0 1016224
11:00+22ссз115696 0.0 1017665
14:00+25с114380 0.0 10161565
17:00+24ю325329 0.0 1016638
20:00+21всв1160100 0.0 101611
25 июля, вс
вс2523:00+18вюв23724 0.0 101723
02:00+18юв2471100 0.0 101772
05:00+18юв347096 0.0 101789
08:00+22юв466141 0.0 1017353
11:00+25юв5748100 0.0 1017974
14:00+26ююв684672 0.0 10171135
17:00+28ююв564024 0.0 10161866
20:00+22вюв496144 0.0 1016177
26 июля, пн
пн2623:00+20вюв5116279 0.0 1017242
02:00+18вюв4117296 0.0 1016209
05:00+18вюв5117940 0.0 1016219
08:00+21вюв6146614 0.0 1015444
11:00+28юв81043100 0.0 10151183
14:00+30ююв893882 0.0 10141956
17:00+29юв68425 0.0 10131819
20:00+23юв51169100 0.5 1013262
27 июля, вт
вт2723:00+19ююв399392 2.8 1015271
02:00+19юв4994100 5.1 1014274
05:00+17юв349773 0.0 101497
08:00+22ю228272 0.0 1014274
11:00+26ююв3363100 0.0 1014779
14:00+28в1256100 0.1 10131129
17:00+28св1159100 0.3 1012114
20:00+22с3587100 2.1 101297
28 июля, ср
ср2823:00+19всв359538 3.1 101294
02:00+19з4698100 8.4 1011204
05:00+18з349815 3.2 1010114
08:00+21з448732 3.2 1011426
11:00+25зсз456999 0.1 10111125
14:00+24з5675100 2.5 1011926
17:00+22зсз6884100 2.9 1011547
20:00+20зсз4108887 5.0 1012314